Mount Airy, NC

1:16 AM EDT on September 19, 2019 (GMT -0400)
Mount Airy-Surry County

Weather History for KMWK - July, 2019

Change the Weather History Date:

Friday, July 26, 2019

  Actual Average (KINT) Record (KINT)
Temperature  
Mean Temperature 72 °F -  
Max Temperature 84 °F 84 °F 98 °F (1987)
Min Temperature 59 °F 67 °F 59 °F (1976)
Cooling Degree Days 6    
Growing Degree Days 22 (Base 50)    
Moisture  
Dew Point 61 °F    
Average Humidity 72    
Maximum Humidity 92    
Minimum Humidity 41    
Precipitation  
Precipitation 0.00 in - - ()
Sea Level Pressure  
Sea Level Pressure 30.30 in    
Wind  
Wind Speed 1 mph (East)    
Max Wind Speed 6 mph    
Max Gust Speed -    
Visibility 10 miles    
Events      
Averages and records for this station are not official NWS values.
T = Trace of Precipitation, MM = Missing Value Source: NWS Daily Summary

Daily Weather History Graph

Daily Weather History Graph

Search for Another Location

Airport or City:

Astronomy

Jul. 26, 2019 Rise Set
Actual Time 6:23 AM EDT 8:33 PM EDT
Civil Twilight 5:54 AM EDT 9:02 PM EDT
Nautical Twilight 5:19 AM EDT 9:37 PM EDT
Astronomical Twilight 4:40 AM EDT 10:15 PM EDT
Moon 1:32 AM EDT (7/26) 3:19 PM EDT (7/26)
Length of Visible Light 15h 07m
Length of Day
14h 09m
Waning Crescent, 34% of the Moon is Illuminated
Jul 26
Waning Crescent
Jul 31
New
Aug 7
First Quarter
Aug 15
Full
Aug 23
Last Quarter

Hourly Weather History & Observations

Time (EDT) Temp. Heat Index Dew Point Humidity Pressure Visibility Wind Dir Wind Speed Gust Speed Precip Events Conditions
12:00 AM 65.3 °F - 61.5 °F 88% 30.25 in 10.0 mi Calm Calm - N/A   Clear
12:20 AM 64.9 °F - 61.5 °F 89% 30.25 in 10.0 mi Calm Calm - N/A   Clear
12:40 AM 64.2 °F - 61.2 °F 90% 30.26 in 10.0 mi Calm Calm - N/A   Clear
1:00 AM 64.2 °F - 61.3 °F 90% 30.27 in 10.0 mi Calm Calm - N/A   Clear
1:20 AM 63.5 °F - 60.8 °F 91% 30.27 in 10.0 mi Calm Calm - N/A   Clear
1:40 AM 63.0 °F - 60.4 °F 91% 30.28 in 10.0 mi Calm Calm - N/A   Clear
2:00 AM 62.6 °F - 60.1 °F 91% 30.27 in 10.0 mi Calm Calm - N/A   Clear
2:20 AM 62.2 °F - 59.9 °F 92% 30.27 in 10.0 mi Calm Calm - N/A   Clear
2:40 AM 62.2 °F - 59.9 °F 92% 30.27 in 10.0 mi Calm Calm - N/A   Clear
3:00 AM 62.4 °F - 59.9 °F 91% 30.28 in 10.0 mi Calm Calm - N/A   Clear
3:20 AM 62.1 °F - 59.5 °F 91% 30.27 in 10.0 mi Calm Calm - N/A   Clear
3:40 AM 62.2 °F - 59.9 °F 92% 30.27 in 10.0 mi Calm Calm - N/A   Scattered Clouds
4:00 AM 62.2 °F - 59.9 °F 92% 30.27 in 10.0 mi Calm Calm - N/A   Scattered Clouds
4:20 AM 61.5 °F - 59.0 °F 91% 30.27 in 10.0 mi Calm Calm - N/A   Clear
4:40 AM 61.7 °F - 59.0 °F 91% 30.27 in 10.0 mi Calm Calm - N/A   Clear
5:00 AM 60.3 °F - 57.7 °F 91% 30.28 in 10.0 mi Calm Calm - N/A   Clear
5:20 AM 60.1 °F - 57.6 °F 91% 30.29 in 10.0 mi Calm Calm - N/A   Clear
5:40 AM 60.1 °F - 57.6 °F 91% 30.29 in 10.0 mi Calm Calm - N/A   Clear
6:00 AM 60.3 °F - 57.7 °F 91% 30.29 in 10.0 mi Calm Calm - N/A   Clear
6:20 AM 59.9 °F - 57.2 °F 91% 30.29 in 10.0 mi Calm Calm - N/A   Clear
6:40 AM 60.1 °F - 57.7 °F 92% 30.30 in 10.0 mi Calm Calm - N/A   Clear
7:00 AM 60.4 °F - 57.9 °F 91% 30.31 in 10.0 mi Calm Calm - N/A   Clear
7:20 AM 61.7 °F - 59.0 °F 91% 30.31 in 10.0 mi Calm Calm - N/A   Clear
7:40 AM 63.0 °F - 59.9 °F 90% 30.32 in 10.0 mi Calm Calm - N/A   Clear
8:00 AM 63.9 °F - 60.8 °F 90% 30.32 in 10.0 mi Calm Calm - N/A   Clear
8:20 AM 65.8 °F - 62.2 °F 88% 30.33 in 10.0 mi Calm Calm - N/A   Clear
8:30 AM 67.1 °F - 63.1 °F 87% 30.33 in 10.0 mi Calm Calm - N/A   Clear
9:20 AM 72.5 °F - 66.7 °F 82% 30.34 in 10.0 mi Calm Calm - N/A   Clear
9:40 AM 74.3 °F - 65.7 °F 74% 30.34 in 10.0 mi Calm Calm - N/A   Clear
10:00 AM 77.4 °F - 63.9 °F 63% 30.34 in 10.0 mi East 3.5 mph - N/A   Clear
10:40 AM 77.7 °F - 64.6 °F 64% 30.35 in 10.0 mi SSE 3.5 mph - N/A   Clear
11:00 AM 77.5 °F - 63.1 °F 61% 30.35 in 10.0 mi Calm Calm - N/A   Clear
11:20 AM 79.0 °F - 62.4 °F 57% 30.35 in 10.0 mi ENE 5.8 mph - N/A   Clear
11:40 AM 79.7 °F - 61.9 °F 54% 30.35 in 10.0 mi ENE 5.8 mph - N/A   Clear
12:00 PM 80.1 °F 81.1 °F 61.0 °F 52% 30.35 in 10.0 mi ENE 4.6 mph - N/A   Clear
12:10 PM 79.9 °F - 61.7 °F 54% 30.35 in 10.0 mi Calm Calm - N/A   Clear
12:35 PM 81.7 °F 82.3 °F 60.8 °F 49% 30.35 in 10.0 mi East 5.8 mph - N/A   Clear
1:00 PM 81.3 °F 81.7 °F 59.2 °F 47% 30.34 in 10.0 mi NE 5.8 mph - N/A   Clear
1:20 PM 81.5 °F 82.4 °F 61.9 °F 51% 30.34 in 10.0 mi South 3.5 mph - N/A   Clear
1:40 PM 81.0 °F 81.8 °F 61.3 °F 51% 30.33 in 10.0 mi ESE 5.8 mph - N/A   Clear
2:00 PM 82.0 °F 82.8 °F 61.9 °F 50% 30.33 in 10.0 mi ENE 4.6 mph - N/A   Scattered Clouds
2:20 PM 83.1 °F 83.7 °F 61.7 °F 48% 30.32 in 10.0 mi East 3.5 mph - N/A   Scattered Clouds
2:40 PM 82.6 °F 82.5 °F 58.6 °F 44% 30.32 in 10.0 mi ESE 3.5 mph - N/A   Scattered Clouds
3:00 PM 83.3 °F 83.5 °F 60.6 °F 46% 30.32 in 10.0 mi ENE 5.8 mph - N/A   Clear
3:20 PM 83.1 °F 82.6 °F 57.4 °F 41% 30.31 in 10.0 mi Calm Calm - N/A   Clear
3:35 PM 84.2 °F 84.0 °F 59.5 °F 43% 30.31 in 10.0 mi Calm Calm - N/A   Clear
4:15 PM 82.8 °F 82.5 °F 57.9 °F 43% 30.30 in 10.0 mi Calm Calm - N/A   Scattered Clouds
4:40 PM 83.3 °F 83.5 °F 60.8 °F 46% 30.30 in 10.0 mi East 4.6 mph - N/A   Clear
5:00 PM 84.2 °F 84.0 °F 59.2 °F 43% 30.30 in 10.0 mi East 3.5 mph - N/A   Clear
5:15 PM 83.1 °F 83.0 °F 59.0 °F 44% 30.29 in 10.0 mi SE 4.6 mph - N/A   Clear
5:40 PM 84.0 °F 83.6 °F 58.6 °F 42% 30.29 in 10.0 mi ESE 5.8 mph - N/A   Clear
6:00 PM 83.3 °F 83.4 °F 59.9 °F 45% 30.29 in 10.0 mi Calm Calm - N/A   Clear
6:10 PM 83.3 °F 82.9 °F 58.3 °F 42% 30.28 in 10.0 mi East 4.6 mph - N/A   Clear
6:40 PM 82.8 °F 83.0 °F 59.9 °F 46% 30.28 in 10.0 mi ENE 3.5 mph - N/A   Clear
6:55 PM 82.6 °F 82.9 °F 60.4 °F 47% 30.28 in 10.0 mi East 4.6 mph - N/A   Clear
7:20 PM 81.5 °F 82.4 °F 61.7 °F 51% 30.29 in 10.0 mi ESE 5.8 mph - N/A   Clear
7:30 PM 80.6 °F 81.8 °F 62.8 °F 54% 30.29 in 10.0 mi ESE 3.5 mph - N/A   Clear
8:00 PM 78.8 °F - 63.9 °F 60% 30.29 in 10.0 mi Calm Calm - N/A   Clear
8:20 PM 77.4 °F - 64.6 °F 65% 30.29 in 10.0 mi Calm Calm - N/A   Clear
8:40 PM 75.2 °F - 67.5 °F 77% 30.30 in 10.0 mi Calm Calm - N/A   Clear
8:55 PM 72.5 °F - 66.7 °F 82% 30.30 in 10.0 mi Calm Calm - N/A   Clear
9:20 PM 71.1 °F - 66.2 °F 85% 30.31 in 10.0 mi Calm Calm - N/A   Clear
9:40 PM 70.9 °F - 65.7 °F 83% 30.31 in 10.0 mi Calm Calm - N/A   Clear
9:55 PM 70.7 °F - 65.5 °F 83% 30.32 in 10.0 mi Calm Calm - N/A   Clear
10:20 PM 70.2 °F - 65.5 °F 85% 30.32 in 10.0 mi Calm Calm - N/A   Clear
10:35 PM 70.0 °F - 65.1 °F 85% 30.32 in 10.0 mi Calm Calm - N/A   Clear
11:00 PM 69.3 °F - 64.4 °F 84% 30.33 in 10.0 mi Calm Calm - N/A   Clear
11:20 PM 68.9 °F - 64.2 °F 85% 30.33 in 10.0 mi Calm Calm - N/A   Clear
11:40 PM 67.3 °F - 63.7 °F 88% 30.33 in 10.0 mi Calm Calm - N/A   Clear